Location: Strada George Coșbuc
(47.6577°N, 23.5639°E)
Time: 02:01:56
(UTC+03:00)

ISS - Pass Details

Date: 10 October 2017
Orbit: 401 x 408 km, 51.6° (Epoch: 23 October)

Event Time Altitude Azimuth Distance (km) Brightness Sun altitude
Rises 20:31:16 0° 293° (WNW) 2,328 1.5 -18.3°
Reaches altitude 10° 20:33:21 10° 291° (WNW) 1,467 0.2 -18.6°
Maximum altitude 20:36:37 69° 209° (SSW) 438 -3.7 -19.2°
Enters shadow 20:36:53 65° 172° (S) 452 -3.8 -19.2°
